Regional Weather Roundup
Issued by NWS

Home | Current Version | Previous Version | Text Only | Print | Product List | Glossary On
Versions: 1 2 3 4 5 6 7 8 9 10 11 12 13 14 15 16 17 18 19 20 21 22 23 24 25 26 27 28 29 30 31 32 33 34 35 36 37 38 39 40 41 42 43 44 45 46 47 48 49 50
000
ASCA44 KEWX 011020
RWRMX

LATIN AMERICA AND CARIBBEAN REGIONAL WEATHER ROUNDUP
NATIONAL WEATHER SERVICE AUSTIN/SAN ANTONIO TX
500 AM CDT FRI AUG 01 2014

NOTE: "FAIR" INDICATED FEW OR NO CLOUDS BELOW 12,000 FEET WITH NO
SIGNIFICANT WEATHER AND/OR OBSTRUCTIONS TO VISIBILITY.

BAJA CALIFORNIA

CITY           SKY/WX    TMP DP  RH WIND       PRES   REMARKS
TIJUANA        CLOUDY    68  61  77 N3        29.94F

NORTHWESTERN MEXICO

CITY           SKY/WX    TMP DP  RH WIND       PRES   REMARKS
DURANGO        MOCLDY    59  52  77 W5        30.24

NORTHEASTERN MEXICO

CITY           SKY/WX    TMP DP  RH WIND       PRES   REMARKS
MONTERREY      CLEAR     75  68  78 CALM      29.92F
NUEVO LAREDO   CLEAR     82  72  69 SE7       29.91
REYNOSA        CLEAR     79  72  78 SE7       29.90
CD. VICTORIA   CLEAR     77  72  83 SE12      29.93

WESTERN MEXICO

CITY           SKY/WX    TMP DP  RH WIND       PRES   REMARKS
DEL BAJIO      CLOUDY    61  59  94 CALM      30.29F
GUADALAJARA    MOCLDY    61  59  94 W2        30.20
MAZATLAN       CLOUDY    77  70  78 N8        29.87S THUNDER
P. VALLARTA    MOCLDY    81  77  89 CALM      29.89F
ZACATECAS      PTCLDY    57  46  67 CALM      30.31F

CENTRAL MEXICO

CITY           SKY/WX    TMP DP  RH WIND       PRES   REMARKS
MEXICO CITY    PTCLDY    61  50  67 SW6       30.34S
MORELIA        MOCLDY    59  57  94 CALM      30.24
QUERETARO      MOCLDY    57  55  94 CALM      30.31F
S. LUIS POTOSI CLEAR     57  55  94 NW7       30.26S
TAMPICO        CLEAR     81  77  89 SE6       29.93
TOLUCA         PTCLDY    50  45  81 CALM      30.42S

SOUTHERN MEXICO

CITY           SKY/WX    TMP DP  RH WIND       PRES   REMARKS
ACAPULCO       PTCLDY    81  75  83 CALM      29.88F

YUCATAN PENINSULA

CITY           SKY/WX    TMP DP  RH WIND       PRES   REMARKS
CAMPECHE       CLEAR     77  72  83 SE6       29.92
CANCUN         CLEAR     73  72  94 CALM      29.93S
COZUMEL        CLEAR     70  70 100 CALM      29.93S
MERIDA         CLEAR     73  70  88 E7        29.94S
MINATITLAN     CLEAR     81  68  65 CALM      29.91
TAPACHULA      MOCLDY    79  75  89 CALM      29.88F
VILLAHERMOSA   CLEAR     79  75  89 CALM      29.92

CENTRAL AMERICA

CITY           SKY/WX    TMP DP  RH WIND       PRES   REMARKS
MANAGUA        MOSUNNY   77  72  83 CALM      29.83S

CARIBBEAN

CITY           SKY/WX    TMP DP  RH WIND       PRES   REMARKS
ARUBA          PTCLDY    81  77  89 E16       29.83S
KINGSTON       PTCLDY    79  73  83 NW3       29.89S
NASSAU         PTCLDY    81  75  83 SE5       29.97S
SAN JUAN       PTCLDY    79  73  83 CALM      29.98R
SANTO DOMINGO  TSTM      73  72  94 VRB3      29.94R
ST. CROIX      PTCLDY    79  73  83 NE5       29.99R
ST. KITTS      PTCLDY    81  73  78 E15       29.97
ST. MAARTEN    PTCLDY    81  73  78 E8        29.97S

$$




USA.gov is the U.S. government's official web portal to all federal, state and local government web resources and services.